CZ-6A DEB

Satellite information

Favourite Embed

Satellite Type and Status

DEBRISIN ORBIT

Key statistics

Satellite CZ-6A DEB at a glance.

Uptime

970

Days in orbit

Revolutions

≈ 14.1

Per day

Orbit

SSO

Sun Synchronous Orbit

Inclination

98.8

Latest

Satellite identification and parameters

Extended collection of information and parameters for CZ-6A DEB.

Object identification

Identified? True

Debris? True

Object name: CZ-6A DEB

International designator: 2022-151AX

Object number (NORAD): 54304

Object ID (CCSDS): 54304

Country: PEOPLES REPUBLIC OF CHINA (PRC)

Current information (Y/N): Y

RCS size: SMALL

Orbital parameters

Period: 101.771 minutes

Inclination: 98.8359 deg

SMA: 7220.645 km

Apoapsis: 872.837 km

Periapsis: 812.182 km

RAAN: 193.6224 deg

Eccentricy: 0.0042001

Argument of periapsis: 215.7189 deg

Mean anomaly: 144.1173 deg

Mean motion: 14.14942535 rev/day

Mean motion (dot): 0.00001185 rev/day2

B* drag term: 0.00063014 1/REarth

Two-line elements (TLE)

Creation date: July 6, 2025, 2:36 p.m.

Reference frame: TEME

Reference center: EARTH

Epoch: July 6, 2025, 1:08 p.m. UTC

TLE line 0: 0 CZ-6A DEB

TLE line 1: 1 54304U 22151AX 25187.54730903 .00001185 00000-0 63014-3 0 9993

TLE line 2: 2 54304 98.8359 193.6224 0042001 215.7189 144.1173 14.14942535135915

Live tracking on map

Real-time ground track for satellite CZ-6A DEB.

In-orbit conjunctions

A list of the most updated potential collisions computed for object CZ-6A DEB.

Target Orbit TCA Probability of collision Miss distance Type
COSMOS 1275 DEB LEO 2025-04-09 16:41:40 0.0001294761 178.0 (m) DEBRIS
FENGYUN 1C DEB SSO 2024-11-13 00:58:57 0.0001073612 122.0 (m) DEBRIS

Associated space launch

Chinese satellite reported for atmospheric/ocean/environmental/spatial parameter research purposes, details TBD.

CZ-6A DEB was lifted into orbit during the mission ‘Long March 6A | Yunhai 3’, on board a Long March 6A space rocket.

The launch took place on Nov. 11, 2022, 10:52 p.m. from Launch Complex 9A.

For more information about the launch, click the button.

Launch to space Long March 6A | Yunhai 3
Long March 6A | Yunhai 3

Agency: N/A

Status: Launch Successful

Launch date: Nov. 11, 2022, 10:52 p.m. UTC

Rocket: Long March 6A

Launch pad: Launch Complex 9A

Location: Taiyuan Satellite Launch Center, People's Republic of China

...

Latest news about this satellite

There are no fresh news available about this satellite. Check back as we update our databases every day.


Newsletter sign-up

Weekly statistics, charts and insights to help you stay on top of the space industry.